Weather History for KJAN - September, 2013

Change the Weather History Date:

Tuesday, September 10, 2013

  Actual Average Record
Temperature  
Mean Temperature 84 °F 78 °F  
Max Temperature 96 °F 89 °F 103 °F (1980)
Min Temperature 71 °F 67 °F 50 °F (1902)
Degree Days  
Heating Degree Days 0 0  
Month to date heating degree days 0 0  
Since 1 July heating degree days 0 0  
Cooling Degree Days 19 13  
Month to date cooling degree days 188 138  
Year to date cooling degree days 1952 1937  
Growing Degree Days 34 (Base 50)    
Moisture  
Dew Point 68 °F    
Average Humidity 63    
Maximum Humidity 90    
Minimum Humidity 35    
Precipitation  
Precipitation 0.00 in 0.10 in 4.10 in (1965)
Month to date precipitation 0.02 1.00  
Year to date precipitation 43.68 38.28  
Sea Level Pressure  
Sea Level Pressure 30.08 in    
Wind  
Wind Speed 4 mph (East)    
Max Wind Speed 16 mph    
Max Gust Speed -    
Visibility 9 miles    
Events      
T = Trace of Precipitation, MM = Missing Value Source: NWS Daily Summary

Daily Weather History Graph

Daily Weather History Graph

Search for Another Location

Airport or City:

Trip Planner

Search our weather history database for the weather conditions in past years. The results will help you decide how hot, cold, wet, or windy it might be!

Date:

Astronomy

Sep. 10, 2013 Rise Set
Actual Time 6:41 AM CDT 7:12 PM CDT
Civil Twilight 6:16 AM CDT 7:37 PM CDT
Nautical Twilight 5:47 AM CDT 8:06 PM CDT
Astronomical Twilight 5:17 AM CDT 8:35 PM CDT
Moon 11:46 AM CDT (9/10) 10:36 PM CDT (9/10)
Length of Visible Light 13h 20m
Length of Day
12h 31m
Waxing Crescent, 28% of the Moon is Illuminated
Sep 10
Waxing Crescent
Sep 12
First Quarter
Sep 19
Full
Sep 26
Last Quarter
Oct 4
New

Hourly Weather History & Observations

Time (CDT) Temp. Heat Index Dew Point Humidity Pressure Visibility Wind Dir Wind Speed Gust Speed Precip Events Conditions
12:54 AM 75.9 °F - 68.0 °F 76% 30.04 in 8.0 mi SE 5.8 mph - N/A   Clear
1:54 AM 75.9 °F - 68.0 °F 76% 30.04 in 8.0 mi SSE 3.5 mph - N/A   Clear
2:54 AM 73.9 °F - 68.0 °F 82% 30.04 in 8.0 mi Calm Calm - 0.01 in   Clear
3:54 AM 73.0 °F - 69.1 °F 87% 30.05 in 7.0 mi Calm Calm - N/A   Clear
4:54 AM 72.0 °F - 68.0 °F 87% 30.06 in 7.0 mi Calm Calm - N/A   Clear
5:54 AM 71.1 °F - 68.0 °F 90% 30.08 in 7.0 mi Calm Calm - N/A   Clear
6:54 AM 72.0 °F - 68.0 °F 87% 30.09 in 6.0 mi Calm Calm - N/A   Clear
7:54 AM 75.9 °F - 69.1 °F 79% 30.10 in 7.0 mi Calm Calm - N/A   Clear
8:54 AM 82.9 °F 87.0 °F 70.0 °F 65% 30.12 in 9.0 mi Calm Calm - N/A   Clear
9:54 AM 88.0 °F 92.1 °F 69.1 °F 53% 30.13 in 10.0 mi Variable 3.5 mph - N/A   Clear
10:54 AM 91.0 °F 95.2 °F 68.0 °F 47% 30.13 in 10.0 mi North 4.6 mph - N/A   Partly Cloudy
11:54 AM 90.0 °F 93.6 °F 68.0 °F 48% 30.12 in 10.0 mi Calm Calm - N/A   Scattered Clouds
12:54 PM 93.0 °F 97.4 °F 68.0 °F 44% 30.10 in 10.0 mi North 9.2 mph - N/A   Mostly Cloudy
1:54 PM 93.0 °F 97.4 °F 68.0 °F 44% 30.07 in 10.0 mi NNW 6.9 mph - N/A   Mostly Cloudy
2:54 PM 93.9 °F 97.0 °F 66.0 °F 40% 30.05 in 10.0 mi East 8.1 mph - N/A   Scattered Clouds
3:54 PM 96.1 °F 98.8 °F 64.9 °F 36% 30.02 in 9.0 mi ENE 3.5 mph - N/A   Scattered Clouds
4:54 PM 93.0 °F 96.4 °F 66.9 °F 42% 30.02 in 8.0 mi East 4.6 mph - N/A   Partly Cloudy
5:54 PM 90.0 °F 92.8 °F 66.9 °F 46% 30.04 in 10.0 mi South 8.1 mph - N/A   Mostly Cloudy
6:54 PM 84.0 °F 88.4 °F 70.0 °F 63% 30.06 in 10.0 mi Calm Calm - N/A   Scattered Clouds
7:54 PM 81.0 °F 84.4 °F 70.0 °F 69% 30.09 in 10.0 mi North 6.9 mph - N/A   Partly Cloudy
8:54 PM 81.0 °F 84.4 °F 70.0 °F 69% 30.10 in 10.0 mi East 6.9 mph - N/A   Clear
9:54 PM 79.0 °F - 70.0 °F 74% 30.11 in 10.0 mi ESE 3.5 mph - N/A   Clear
10:54 PM 77.0 °F - 69.8 °F 78% 30.11 in 9.0 mi SSE 4.6 mph - N/A   Clear
11:54 PM 75.9 °F - 70.0 °F 82% 30.10 in 9.0 mi SSE 4.6 mph - N/A   Clear